Waarnemingen

Advertentie
Mijn weer
Boulmer, Groot Brittannië (3240): temperatuur & dauwpunt: 12.02.2019 00:00:00 - 18.02.2019 00:00:00 (GMT)Boulmer, Groot Brittannië (3240): windsnelheid & windstoten: 12.02.2019 00:00:00 - 18.02.2019 00:00:00 (GMT)Boulmer, Groot Brittannië (3240): windrichting: 12.02.2019 00:00:00 - 18.02.2019 00:00:00 (GMT)Boulmer, Groot Brittannië (3240): luchtdruk: 12.02.2019 00:00:00 - 18.02.2019 00:00:00 (GMT)Boulmer, Groot Brittannië (3240): zicht: 12.02.2019 00:00:00 - 18.02.2019 00:00:00 (GMT)Boulmer, Groot Brittannië (3240): Zonneschijnduur: 12.02.2019 00:00:00 - 18.02.2019 00:00:00 (GMT)Boulmer, Groot Brittannië (3240): neerslag: 12.02.2019 00:00:00 - 18.02.2019 00:00:00 (GMT)
Datum & Tijd tt [°C] td [°C] ff [km/u] ff [kn] fx [km/u] fx [kn] dd ppp [hPa] vv [km] sd [min] rr [mm]
18.02.2019 00:00:00 5,9 2,7 21 11 - - Z 1006,9 10 - 0,0
17.02.2019 23:00:00 6,5 2,5 24 13 - - ZZO 1006,8 29 0 0,0
17.02.2019 22:00:00 6,2 2,3 16 9 - - Z 1007,4 28 0 0,0
17.02.2019 21:00:00 6,0 2,3 13 7 - - Z 1007,4 30 0 0,0
17.02.2019 20:00:00 7,1 3,4 15 8 - - Z 1007,5 21 0 0,0
17.02.2019 19:00:00 8,5 3,4 28 15 - - ZZW 1006,9 10 0 0,0
17.02.2019 18:00:00 9,4 4,0 24 13 - - Z 1006,7 40 0 0,0
17.02.2019 17:00:00 10,7 4,2 22 12 - - Z 1006,1 35 30 0,0
17.02.2019 16:00:00 11,6 5,0 28 15 48 26 ZZW 1005,9 10 42 0,0
17.02.2019 15:00:00 12,8 5,8 35 19 61 33 ZZW 1005,7 10 42 0,0
17.02.2019 14:00:00 12,9 5,9 41 22 61 33 ZZW 1005,1 30 42 0,0
17.02.2019 13:00:00 9,2 6,1 21 11 - - ZO 1005,6 10 30 0,0
17.02.2019 12:00:00 8,7 6,4 24 13 - - ZZO 1006,0 9 48 -
17.02.2019 11:00:00 8,4 6,5 28 15 - - ZZO 1006,7 11 48 -
17.02.2019 10:00:00 7,9 6,3 21 11 - - Z 1007,1 13 54 0,0
17.02.2019 09:00:00 7,2 6,1 21 11 - - ZO 1007,8 9 36 0,0
17.02.2019 08:00:00 6,6 5,6 21 11 - - ZO 1008,6 9 0 0,0
17.02.2019 07:00:00 7,3 6,0 28 15 - - ZO 1009,0 10 0 0,0
17.02.2019 06:00:00 7,6 6,3 28 15 - - ZZO 1009,4 10 0 0,0
17.02.2019 05:00:00 8,5 6,8 22 12 - - ZZO 1009,9 13 0 0,0
17.02.2019 04:00:00 9,5 7,2 24 13 - - Z 1010,2 10 0 0,0
17.02.2019 03:00:00 7,6 6,6 21 11 - - OZO 1010,6 8 0 0,0
17.02.2019 02:00:00 9,1 7,5 28 15 - - Z 1011,1 10 0 0,0
17.02.2019 01:00:00 9,1 7,6 21 11 - - Z 1011,7 16 0 0,0
17.02.2019 00:00:00 8,0 6,7 16 9 - - ZO 1012,5 10 - 0,0
16.02.2019 23:00:00 7,6 5,8 16 9 - - ZO 1012,9 10 0 0,0
16.02.2019 22:00:00 7,9 5,1 18 10 - - Z 1013,4 23 0 0,0
16.02.2019 21:00:00 7,9 5,3 15 8 - - Z 1013,9 10 0 0,0
16.02.2019 20:00:00 7,7 5,2 - - - - - 1014,4 30 0 0,0
16.02.2019 19:00:00 7,1 3,8 - - - - - 1014,7 10 0 0,0
16.02.2019 18:00:00 7,9 3,8 - - - - - 1015,1 40 0 0,0
16.02.2019 17:00:00 9,4 4,2 - - - - - 1015,0 10 0 0,0
16.02.2019 16:00:00 10,7 5,4 - - - - - 1015,2 10 0 0,0
16.02.2019 15:00:00 11,2 4,5 - - - - - 1015,3 50 30 0,0
16.02.2019 14:00:00 12,2 3,7 - - - - - 1015,6 45 54 0,0
16.02.2019 13:00:00 11,9 3,8 - - - - - 1015,4 45 42 0,0
16.02.2019 12:00:00 10,5 5,2 - - - - - 1016,1 40 0 0,0
16.02.2019 11:00:00 10,7 4,6 0 0 - - N 1015,7 40 12 0,0
16.02.2019 10:00:00 10,3 5,8 - - - - - 1015,5 10 6 0,0
16.02.2019 09:00:00 9,8 5,9 9 5 - - Z 1015,5 10 0 0,0
16.02.2019 08:00:00 9,6 5,5 21 11 46 25 ZZW 1015,0 10 0 0,0
16.02.2019 07:00:00 9,9 4,9 29 16 - - ZW 1014,1 40 0 0,0
16.02.2019 06:00:00 10,2 5,2 13 7 - - ZZW 1014,5 10 0 0,0
16.02.2019 05:00:00 10,0 5,6 21 11 - - ZW 1014,0 35 0 0,0
16.02.2019 04:00:00 10,2 5,4 31 17 52 28 ZW 1013,5 35 0 0,0
16.02.2019 03:00:00 10,3 5,5 28 15 48 26 ZZW 1014,1 30 0 0,0
16.02.2019 02:00:00 10,2 7,0 16 9 - - ZZW 1013,6 22 0 0,0
16.02.2019 01:00:00 11,2 6,7 29 16 50 27 ZZW 1013,1 10 0 0,0
16.02.2019 00:00:00 6,1 3,4 16 9 - - ZZO 1013,3 10 - 0,0
15.02.2019 23:00:00 6,1 3,4 13 7 - - ZZO 1014,2 10 0 0,0
15.02.2019 22:00:00 6,9 3,4 15 8 - - ZO 1015,1 13 0 0,0
15.02.2019 21:00:00 6,6 3,3 9 5 - - Z 1015,3 10 0 0,0
15.02.2019 20:00:00 7,1 3,6 16 9 - - ZZO 1015,9 14 0 0,0
15.02.2019 19:00:00 6,8 4,1 16 9 - - ZZO 1016,4 9 0 0,0
15.02.2019 18:00:00 7,2 4,0 11 6 - - Z 1016,9 13 0 0,0
15.02.2019 17:00:00 7,5 4,2 18 10 - - Z 1017,2 10 36 0,0
15.02.2019 16:00:00 8,4 4,3 18 10 - - Z 1017,4 10 60 0,0
15.02.2019 15:00:00 9,0 3,4 21 11 - - Z 1018,3 10 60 0,0
15.02.2019 14:00:00 8,0 3,5 22 12 - - ZZO 1019,4 10 60 0,0
15.02.2019 13:00:00 8,1 3,6 11 6 - - ZO 1020,4 11 60 0,0
15.02.2019 12:00:00 9,4 2,2 15 8 - - ZZO 1020,9 24 60 0,0
15.02.2019 11:00:00 7,4 2,7 15 8 - - Z 1021,4 10 60 0,0
15.02.2019 10:00:00 4,6 1,0 16 9 - - Z 1021,9 21 60 0,0
15.02.2019 09:00:00 2,4 0,1 9 5 - - ZZO 1022,5 19 60 0,0
15.02.2019 08:00:00 -0,1 -1,6 8 4 - - Z 1022,6 10 6 0,0
15.02.2019 07:00:00 -0,1 -1,8 8 4 - - WZW 1022,5 10 0 0,0
15.02.2019 06:00:00 -0,1 -2,3 5 3 - - ZZW 1022,7 10 0 0,0
15.02.2019 05:00:00 -0,1 -1,2 5 3 - - WZW 1023,0 10 0 0,0
15.02.2019 04:00:00 1,2 -0,6 4 2 - - W 1023,4 23 0 0,0
15.02.2019 03:00:00 2,0 -1,1 8 4 - - ZZO 1023,9 30 0 0,0
15.02.2019 02:00:00 1,7 -1,0 11 6 - - Z 1024,4 10 0 0,0
15.02.2019 01:00:00 1,5 -0,6 5 3 - - Z 1025,2 28 0 0,0
15.02.2019 00:00:00 1,9 -0,4 8 4 - - Z 1025,7 10 - 0,0
14.02.2019 23:00:00 4,8 0,1 16 9 - - WZW 1025,6 10 0 0,0
14.02.2019 22:00:00 4,6 1,3 4 2 - - ZZW 1026,1 25 0 0,0
14.02.2019 21:00:00 5,4 2,2 8 4 - - ZO 1026,2 10 0 0,0
14.02.2019 20:00:00 5,7 2,8 5 3 - - Z 1026,5 26 0 0,0
14.02.2019 19:00:00 6,1 3,6 9 5 - - ZW 1026,6 22 0 0,0
14.02.2019 18:00:00 6,0 4,0 11 6 - - ZZW 1026,9 10 0 0,0
14.02.2019 17:00:00 7,2 4,9 13 7 - - Z 1026,9 10 0 0,0
14.02.2019 16:00:00 8,8 4,8 11 6 - - Z 1026,8 25 0 0,0
14.02.2019 15:00:00 9,5 5,4 9 5 - - ZZW 1027,0 10 0 0,0
14.02.2019 14:00:00 10,0 5,5 21 11 - - ZZW 1027,1 30 24 0,0
14.02.2019 13:00:00 10,2 5,3 26 14 - - ZZW 1027,7 10 54 0,0
14.02.2019 12:00:00 10,5 5,3 28 15 - - ZW 1028,0 10 48 0,0
14.02.2019 11:00:00 10,4 5,4 22 12 - - ZW 1027,8 30 42 0,0
14.02.2019 10:00:00 10,2 5,3 29 16 - - ZW 1027,5 10 54 0,0
14.02.2019 09:00:00 9,5 5,1 29 16 46 25 ZZW 1027,4 10 0 0,0
14.02.2019 08:00:00 9,4 5,3 22 12 - - Z 1027,4 29 0 0,0
14.02.2019 07:00:00 9,2 5,5 15 8 - - Z 1027,3 10 0 0,0
14.02.2019 06:00:00 8,8 5,2 18 10 - - ZZW 1026,9 10 0 0,0
14.02.2019 05:00:00 8,3 5,0 16 9 - - Z 1026,6 26 0 0,0
14.02.2019 04:00:00 9,2 5,1 16 9 - - Z 1026,1 10 0 0,0
14.02.2019 03:00:00 9,5 5,1 29 16 - - ZZW 1025,9 10 0 0,0
14.02.2019 02:00:00 9,5 5,2 24 13 46 25 ZW 1025,7 30 0 0,0
14.02.2019 01:00:00 9,2 5,1 22 12 - - ZW 1025,8 30 0 0,0
14.02.2019 00:00:00 8,9 4,7 22 12 50 27 Z 1024,9 10 - 0,0
13.02.2019 23:00:00 8,4 4,7 18 10 - - ZZW 1024,8 29 0 0,0
13.02.2019 22:00:00 7,4 4,3 15 8 - - Z 1024,7 29 0 0,0
13.02.2019 21:00:00 8,2 4,6 29 16 - - ZZW 1024,1 30 0 0,0
13.02.2019 20:00:00 8,0 4,7 15 8 - - Z 1024,3 10 0 0,0
13.02.2019 19:00:00 8,9 5,4 28 15 - - ZZW 1024,0 30 0 0,0
13.02.2019 18:00:00 9,5 5,9 24 13 - - ZZW 1024,9 30 0 0,0
13.02.2019 17:00:00 9,5 6,1 13 7 - - ZZW 1025,4 10 0 0,0
13.02.2019 16:00:00 9,8 5,9 11 6 - - Z 1025,2 10 0 0,0
13.02.2019 15:00:00 10,3 5,8 22 12 - - ZW 1025,1 10 0 0,0
13.02.2019 14:00:00 10,7 5,9 26 14 - - ZZW 1024,9 30 6 0,0
13.02.2019 13:00:00 10,1 6,3 21 11 - - ZW 1025,4 27 0 0,0
13.02.2019 12:00:00 9,7 6,2 18 10 - - ZZW 1025,6 27 0 0,0
13.02.2019 11:00:00 9,5 6,3 13 7 - - ZZW 1025,7 10 0 0,0
13.02.2019 10:00:00 9,2 6,4 21 11 - - ZZW 1025,0 10 0 0,0
13.02.2019 09:00:00 8,8 6,4 16 9 - - Z 1025,2 40 0 0,0
13.02.2019 08:00:00 8,8 5,9 18 10 - - ZZW 1024,8 10 0 0,0
13.02.2019 07:00:00 8,6 7,0 15 8 - - Z 1024,9 10 0 0,0
13.02.2019 06:00:00 8,7 7,0 15 8 - - Z 1024,7 10 0 0,0
13.02.2019 05:00:00 8,1 6,8 15 8 - - Z 1025,1 10 0 0,0
13.02.2019 04:00:00 8,7 7,0 22 12 - - ZZW 1025,1 10 0 0,0
13.02.2019 03:00:00 8,1 7,3 16 9 - - ZZW 1025,5 10 0 0,0
13.02.2019 02:00:00 7,3 6,5 11 6 - - Z 1026,0 10 0 0,0
13.02.2019 01:00:00 7,1 6,0 9 5 - - ZZO 1026,1 10 0 0,0
13.02.2019 00:00:00 8,4 6,5 13 7 - - ZO 1026,1 10 - 0,0
12.02.2019 23:00:00 9,0 6,8 21 11 - - ZW 1026,2 29 0 0,0
12.02.2019 22:00:00 9,0 6,9 21 11 - - ZW 1026,0 25 0 0,0
12.02.2019 21:00:00 8,1 5,9 15 8 - - ZZW 1025,8 10 0 0,0
12.02.2019 20:00:00 9,2 6,5 21 11 46 25 ZW 1024,8 10 0 0,0
12.02.2019 19:00:00 9,8 6,6 35 19 54 29 WZW 1023,8 10 0 0,0
12.02.2019 18:00:00 10,8 7,5 22 12 57 31 WZW 1024,1 30 0 0,0
12.02.2019 17:00:00 10,7 7,7 37 20 63 34 WZW 1022,7 10 0 0,0
12.02.2019 16:00:00 11,1 7,7 44 24 68 37 WZW 1021,5 45 6 0,0
12.02.2019 15:00:00 11,4 7,7 39 21 65 35 ZW 1022,1 10 0 0,0
12.02.2019 14:00:00 10,5 7,2 22 12 - - ZZW 1022,7 30 0 0,0
12.02.2019 13:00:00 9,1 6,7 16 9 - - Z 1023,3 10 0 0,0
12.02.2019 12:00:00 9,3 6,7 16 9 - - ZZW 1023,8 10 0 0,0
12.02.2019 11:00:00 9,4 6,8 26 14 - - ZW 1023,7 35 0 0,0
12.02.2019 10:00:00 8,8 5,7 26 14 48 26 ZZW 1023,7 10 0 0,0
12.02.2019 09:00:00 8,3 5,3 31 17 - - ZW 1024,1 10 0 0,0
12.02.2019 08:00:00 3,6 2,5 21 11 - - Z 1023,8 10 0 0,0
12.02.2019 07:00:00 3,2 1,9 16 9 - - Z 1024,1 14 0 0,0
12.02.2019 06:00:00 2,9 1,7 15 8 - - Z 1024,8 10 0 0,0
12.02.2019 05:00:00 2,9 1,4 16 9 - - Z 1025,5 28 0 0,0
12.02.2019 04:00:00 5,0 2,5 21 11 - - ZZW 1025,8 10 0 0,0
12.02.2019 03:00:00 5,7 3,1 26 14 - - ZZW 1025,8 10 0 0,0
12.02.2019 02:00:00 4,8 2,8 18 10 - - Z 1026,6 30 0 0,0
12.02.2019 01:00:00 3,0 2,0 16 9 - - Z 1027,0 10 0 0,0
12.02.2019 00:00:00 2,9 1,5 18 10 - - ZZW 1027,4 10 - 0,0

tt = temperatuur
td = dauwpunt
ff = windsnelheid
fx = windstoten
dd = windrichting
ppp = luchtdruk
vv = zicht
sd = Zonneschijnduur
rr = neerslag

Weerstations in de omgeving